Terug naar catalogus

FENGYUN 1C DEB

ActiefPO
NORAD 31057·DEBRIS·🇨🇳 China

Gelanceerd May 10, 1999 vanaf Taiyuan Satellite Launch Center

Loading…

Volgende Passages (komende 24 uur)

TLE

VersSource: Space-Track

Epoch: Sep 13, 2026, 12:24 UTC

1 31057U 99025BFB 26256.51706094  .00005977  00000-0  63853-3 0  9990
2 31057  99.2297 342.8496 0130785 111.8425 249.6754 14.83123009660211

Volg FENGYUN 1C DEB in realtime met AllMySat

Download on the App Store